Simultaneous Nadir Overpasses (SNOs) Predictions

Prediction of SNOs between GOES-16 and AQUA Satellite Orbit:

Table of predicted SNOs for the next 14.0 days since TLE Epoch: 10/31/2017
Index Date Time (GOES-16) GOES-16 Lat,Lon AQUA Lat,Lon Distance(km) Time Diff (sec)
1 10/31/2017 19:24:42 0.00, -89.30 0.45, -87.07 253.38 80
2 11/01/2017 07:45:58 -0.00, -89.29 0.60, -92.23 333.52 80
3 11/03/2017 07:31:06 -0.00, -89.29 0.01, -89.27 2.94 80
4 11/05/2017 07:18:55 -0.00, -89.28 -0.64, -86.31 338.08 80
5 11/05/2017 19:40:19 0.00, -89.29 -0.49, -91.50 251.97 80
6 11/07/2017 19:30:48 -0.00, -89.28 0.17, -88.55 83.97 80
7 11/09/2017 19:18:36 -0.00, -89.28 0.77, -85.58 420.18 80
8 11/10/2017 07:39:52 0.00, -89.28 0.29, -90.75 166.39 80
9 11/12/2017 07:25:00 -0.00, -89.28 -0.32, -87.78 170.42 80
10 11/12/2017 19:46:24 0.00, -89.28 -0.79, -92.97 419.50 80




NCC Satellite Simultaneous Nadir Overpasses (SNOs) Prediction Service
